Flag for U.S.A. Weather past 2 weeks in Montpelier, Vermont, U.S.A.

Now
38 °F

Overcast.


Feels Like: 38 °F
Forecast: 33 / 55 °F
Wind: No wind

Location: Knapp State Airport

Current Time: Apr 25, 2015 at 9:30:28 PM

Latest Report: Apr 25, 2015 at 8:51 PM


Visibility: 10 mi

Pressure: 29.80 "Hg

Humidity: 73%

Dew point: 30 °F

Location of MontpelierLocation

Historic Weather in Montpelier — Graph

°F

Montpelier temperature yesterday

Maximum temperature yesterday: 35 °F (at 1:51 PM)
Minimum temperature yesterday: 31 °F (at 12:51 AM)
Average temperature yesterday: 33 °F

Past Weeks' High & Low Weather Summary

 TemperatureHumidityPressure
High69 °F (Apr 13, 4:51 PM)100% (Apr 21, 6:51 AM)30.53 "Hg (Apr 21, 6:51 AM)
Low24 °F (Apr 16, 5:51 AM)13% (Apr 16, 5:51 PM)29.55 "Hg (Apr 23, 4:51 AM)
Average43 °F61%29.99 "Hg
* Reported Apr 10 7:51 PM — Apr 25 7:51 PM, Montpelier, Weather by CustomWeather, © 2015

Note: Actual official high and low records may vary slightly from our data, if they occured in-between our weather recording intervals... More about our weather records

Advertising

Montpelier weather history for previous 24 hours

 ConditionsComfort  
Time TempWeatherWind HumidityBarometerVisibility
7:51 PM
Sat, Apr 25
38 °FMostly cloudy.No wind73%29.80 "Hg10 mi
6:51 PM39 °FOvercast.No wind67%29.81 "Hg10 mi
5:51 PM40 °FOvercast.6 mph63%29.81 "Hg10 mi
4:51 PM40 °FOvercast.8 mph63%29.80 "Hg10 mi
3:51 PM40 °FOvercast.12 mph60%29.80 "Hg10 mi
2:51 PM41 °FOvercast.10 mph55%29.81 "Hg10 mi
1:51 PM39 °FOvercast.14 mph60%29.82 "Hg10 mi
12:51 PM42 °FScattered clouds.13 mph55%29.80 "Hg10 mi
11:51 AM37 °FOvercast.9 mph62%29.81 "Hg10 mi
10:51 AM35 °FCloudy.9 mph64%29.83 "Hg10 mi
10:04 AM34 °FCloudy.9 mph64%29.79 "Hg10 mi
9:51 AM35 °FMostly cloudy.10 mph64%29.83 "Hg10 mi
8:51 AM32 °FOvercast.9 mph66%29.84 "Hg10 mi
7:51 AM31 °FOvercast.10 mph67%29.85 "Hg10 mi
6:51 AM30 °FOvercast.12 mph69%29.85 "Hg10 mi
6:04 AM30 °FPartly cloudy.14 mph69%29.80 "Hg10 mi
5:51 AM30 °FPassing clouds.10 mph69%29.84 "Hg10 mi
4:51 AM30 °FOvercast.10 mph66%29.84 "Hg10 mi
3:51 AM31 °FOvercast.14 mph64%29.85 "Hg10 mi
2:51 AM31 °FOvercast.16 mph67%29.84 "Hg10 mi
1:51 AM30 °FMostly cloudy.16 mph72%29.85 "Hg10 mi
12:51 AM31 °FMostly cloudy.16 mph69%29.85 "Hg10 mi
11:51 PM
Fri, Apr 24
32 °FOvercast.16 mph61%29.86 "Hg10 mi
10:51 PM33 °FOvercast.9 mph58%29.87 "Hg10 mi
9:51 PM32 °FOvercast.7 mph66%29.88 "Hg10 mi
Weather by CustomWeather, © 2015

See weather overviewHow to use our weather pages